Location: Houhaj�rvi
(61.2833°N, 23.0000°E)
Time: 22:56:23
(UTC+00:00)

Nadezhda 4 Rocket - Pass Details

Date: 27 February 2020
Orbit: 950 x 991 km, 82.9° (Epoch: 05 April)

Event Time Altitude Azimuth Distance (km) Brightness Sun altitude
Rises 17:52:52 0° 345° (NNW) 3,695 7.4 -15.9°
Reaches altitude 10° 17:55:24 10° 344° (NNW) 2,749 6.7 -16.2°
Maximum altitude 18:01:40 70° 262° (W) 1,050 4.3 -17.0°
Drops below altitude 10° 18:07:56 10° 181° (S) 2,752 6.2 -17.7°
Sets 18:10:28 0° 179° (S) 3,698 6.9 -18.0°
